Regional Weather Roundup
Issued by NWS

Home | Current Version | Previous Version | Graphics & Text | Print | Product List | Glossary On
Versions: 1 2 3 4 5 6 7 8 9 10 11 12 13 14 15 16 17 18 19 20 21 22 23 24 25 26 27 28 29 30 31 32 33 34 35 36 37 38 39 40 41 42 43 44 45 46 47 48 49 50
367
ASUS43 KLSX 091310
RWRMO

WEATHER SUMMARY FOR MISSOURI
NATIONAL WEATHER SERVICE SPRINGFIELD MO
700 AM CST FRI DEC 09 2016

NOTE: "FAIR" INDICATES FEW OR NO CLOUDS BELOW 12,000 FEET WITH NO
       SIGNIFICANT WEATHER AND/OR OBSTRUCTIONS TO VISIBILITY.
       CURRENT SKY AND/OR WEATHER CONDITIONS ARE NOT AVAILABLE FOR
       CHILLICOTHE AND FARMINGTON.

MOZ001>031-035>038-043-044-053-054-091400-
...NORTHERN AND WESTERN MISSOURI...

CITY           SKY/WX    TMP DP  RH WIND       PRES   REMARKS
KANSAS CTY INT PTCLDY    12   6  77 NE5       30.63S WCI   4
KANSAS C DTWN  CLEAR     16   8  71 NE5       30.66S WCI   9
LEE`S SUMMIT   CLEAR     15   8  73 NE5       30.63F WCI   8
ST JOSEPH      CLEAR      7   4  87 CALM      30.65F
CHILLICOTHE      N/A     10   6  84 CALM      30.66F
KIRKSVILLE     CLEAR      8   5  87 W5        30.61F WCI   0

$$
MOZ066>068-077>081-088>096-101>105-091400-
...SOUTHWEST MISSOURI...

CITY           SKY/WX    TMP DP  RH WIND       PRES   REMARKS
SPRINGFIELD    CLOUDY    11   8  88 NW3       30.61S
JOPLIN         CLOUDY    14  11  87 CALM      30.66S
BRANSON        PTCLDY    14  10  85 CALM      30.64R

$$
MOZ032>034-039>042-045>050-055>058-069>072-091400-
...CENTRAL MISSOURI...

CITY           SKY/WX    TMP DP  RH WIND       PRES   REMARKS
COLUMBIA       CLEAR     13   8  81 W6        30.63S WCI   4
JEFFERSON CITY PTCLDY    13   9  84 CALM      30.67S
ROLLA          CLEAR     12   9  87 NW6       30.59F WCI   3
SEDALIA        CLEAR     14   8  77 NW5       30.66S WCI   6
WHITEMAN AFB   CLEAR     16  11  80 NW6       30.64F WCI   7
WARRENSBURG    CLEAR     14   9  79 CALM      30.66S
OSAGE BEACH    CLEAR     12   7  80 CALM      30.66S

$$
MOZ051-052-059>065-091400-
...EAST CENTRAL MISSOURI...

CITY           SKY/WX    TMP DP  RH WIND       PRES   REMARKS
ST LOUIS INTL  CLEAR     17   9  70 W7        30.63R WCI   8
SPIRIT OF STL  CLEAR     15  11  83 W5        30.65R WCI   8
ST CHARLES     CLEAR     17  13  84 W9        30.64R WCI   6

$$
MOZ072>076-082>087-097>100-106>115-091400-
...SOUTH CENTRAL AND SOUTHEAST MISSOURI...

CITY           SKY/WX    TMP DP  RH WIND       PRES   REMARKS
CAPE GIRARDEAU CLEAR     18  13  80 CALM      30.65R
FARMINGTON     CLEAR     15  10  80 NW6       30.62R WCI   6
POPLAR BLUFF   CLEAR     19  13  77 NW5       30.66S WCI  12
WEST PLAINS    CLEAR     12   8  84 SW3       30.62R

$$




USA.gov is the U.S. government's official web portal to all federal, state and local government web resources and services.